Theta_e
319 320 321 322 322 321 320 320 320 320 320 320 319 319 319 321 320 319 320 322 323 325 325 326 326 326 326 326 327 327 328 328 327 327 327 327 327 327 327 327 326 326 325 326 326 326 329 330 328 326 324 325 325 324 324 322 320 319 317 317 317 317 317
320 321 321 322 321 321 320 320 320 320 320 320 319 317 316 318 319 319 320 321 322 323 323 324 324 324 324 324 325 325 325 326 326 326 326 325 326 326 326 326 326 326 326 325 325 325 326 328 330 326 319 318 321 322 323 323 320 319 318 317 317 317 317
321 321 321 321 321 321 320 320 319 319 318 318 317 315 314 316 318 318 318 319 321 321 321 322 322 323 323 323 324 324 324 324 323 322 321 321 322 324 325 326 326 326 325 322 322 323 323 322 325 323 315 313 316 316 317 316 315 315 315 315 315 316 317
321 320 320 321 321 321 320 318 317 315 314 315 315 314 312 313 314 313 312 314 317 319 319 320 320 321 321 321 322 322 322 322 319 317 316 316 318 321 323 323 322 321 319 317 316 317 317 317 319 318 313 312 314 313 313 313 313 313 314 314 314 315 316
320 319 319 321 321 320 319 316 314 313 313 313 313 313 312 312 312 311 310 311 314 315 315 316 316 317 318 318 319 321 321 320 317 315 315 315 317 318 318 318 317 316 315 314 313 313 313 313 315 315 312 313 314 313 312 312 313 314 314 313 313 313 314
320 319 320 321 321 320 317 314 313 314 314 313 312 312 312 312 311 311 311 313 313 311 311 311 312 312 311 310 311 314 315 316 314 313 313 313 314 315 314 313 313 312 312 312 312 313 313 313 313 313 312 312 313 313 312 312 312 313 313 313 312 312 313
319 318 320 321 321 319 316 314 314 313 313 312 310 310 311 311 311 312 313 314 313 311 310 310 309 307 306 304 304 304 306 308 308 309 310 312 312 312 312 311 311 310 311 311 311 312 312 312 312 312 312 312 312 312 311 311 312 313 312 312 313 312 311
318 318 320 321 320 318 314 313 313 311 309 309 308 309 310 310 311 313 314 313 312 312 311 310 307 306 305 303 302 302 302 303 304 306 309 310 310 309 308 307 308 309 309 308 308 309 310 312 311 311 312 313 315 314 311 311 311 312 311 310 311 310 308
317 318 320 321 320 316 313 312 311 309 308 307 307 309 310 310 310 311 312 312 313 313 313 313 310 308 306 304 303 304 304 303 303 305 308 309 309 308 307 307 305 306 307 305 304 304 306 309 311 311 310 311 315 316 315 316 314 311 310 308 308 308 306
318 318 319 321 319 316 315 314 311 308 307 307 308 309 310 309 307 308 310 312 314 314 313 313 313 310 307 305 305 306 306 306 304 304 306 308 309 309 309 309 308 306 307 307 306 305 305 307 308 309 308 308 311 314 316 319 317 312 310 309 307 307 306
319 318 318 319 319 317 317 316 313 311 310 308 308 309 310 310 308 306 306 308 312 313 313 312 312 311 307 305 306 308 308 307 305 304 305 306 308 309 309 310 309 307 307 308 309 308 308 308 308 307 308 308 309 311 312 314 315 312 309 308 307 307 307
319 318 317 317 317 318 318 317 316 315 314 312 311 310 310 311 309 307 305 305 308 311 312 312 312 311 309 308 308 309 310 309 307 305 305 305 305 307 309 309 309 307 305 306 309 310 309 308 308 308 308 308 308 309 309 309 311 311 309 308 307 307 308
321 319 317 316 317 318 318 318 317 317 317 316 315 313 311 311 309 308 307 305 306 307 309 311 312 311 312 312 310 309 310 310 307 306 306 307 305 306 307 307 308 307 306 306 308 309 308 307 308 308 308 309 309 309 309 309 309 309 308 307 307 307 307
321 319 318 317 318 319 319 319 318 318 318 317 317 316 314 313 312 309 308 307 307 306 307 309 311 311 312 313 311 311 311 310 309 309 308 307 306 306 307 308 308 308 307 306 306 306 307 307 307 307 307 308 308 307 307 307 308 307 307 306 306 306 306
321 320 318 318 319 319 319 319 318 318 318 318 318 317 317 317 315 313 312 311 310 309 308 308 309 309 310 312 312 311 312 310 310 311 311 309 307 306 307 308 308 308 308 307 305 304 306 306 307 307 307 307 306 306 305 305 305 305 306 305 305 305 304
321 320 318 318 319 319 319 319 319 319 318 318 319 318 318 318 317 317 316 315 315 314 313 311 310 309 308 309 311 311 312 311 310 311 312 311 310 308 307 306 307 308 308 308 307 305 305 307 307 307 307 306 306 305 305 305 304 304 304 304 304 304 303
321 320 320 320 319 319 319 319 319 319 319 318 319 318 319 318 318 318 317 318 317 317 317 316 314 313 311 310 310 311 311 311 310 311 312 312 311 310 309 308 307 307 307 307 308 306 305 306 307 307 307 306 306 305 304 303 303 303 302 302 302 302 302
322 321 321 321 320 320 320 319 318 320 319 319 319 319 319 319 318 319 318 318 318 318 318 318 317 316 316 314 312 311 311 311 311 312 312 312 312 311 311 310 309 309 308 307 308 307 306 306 306 307 307 306 305 304 303 302 302 301 301 300 300 299 298
322 322 321 321 321 320 320 319 320 320 319 319 319 318 319 319 319 319 318 318 319 319 318 318 318 318 318 317 316 314 313 312 312 312 312 312 311 311 311 311 310 309 309 308 308 308 307 306 306 306 306 305 304 303 301 300 299 299 298 297 296 296 296
322 321 322 321 321 320 320 319 319 320 320 320 319 319 319 319 319 319 319 319 319 319 319 319 319 319 319 319 318 316 315 313 313 313 313 313 311 311 311 311 310 310 309 309 308 308 307 306 306 306 305 305 303 301 298 296 295 295 295 295 296 296 296
321 321 322 322 321 321 321 320 319 320 321 321 321 321 321 320 320 320 320 320 319 319 320 320 320 320 319 319 318 318 317 315 314 313 313 314 312 311 311 311 310 310 309 309 308 307 307 306 306 305 304 304 302 299 296 294 293 294 295 296 296 296 296
322 321 321 322 322 321 320 320 319 319 319 319 319 320 320 320 320 320 320 320 319 319 319 319 319 319 319 319 318 318 317 316 315 314 314 314 313 311 311 311 310 309 309 308 308 307 306 306 305 304 304 303 301 299 297 295 295 296 297 297 297 297 297
321 320 319 320 320 319 319 320 321 320 319 318 317 318 318 318 319 319 319 319 318 318 317 317 317 317 318 319 319 318 318 317 316 315 314 314 313 312 311 311 311 309 308 308 307 307 306 305 304 303 303 302 300 299 298 297 298 298 298 297 297 297 297
320 320 320 319 320 320 320 320 321 321 320 319 319 319 319 319 319 319 319 319 319 319 318 318 318 318 319 319 320 319 318 317 317 316 315 314 313 312 311 311 310 309 308 308 307 306 305 304 303 303 302 301 300 299 299 299 299 298 298 297 297 297 297
319 319 318 318 318 319 319 319 320 320 319 319 318 318 318 318 319 318 318 319 320 320 320 321 321 321 321 320 320 320 319 318 317 316 315 315 314 313 312 310 309 309 308 308 306 304 304 303 303 302 302 301 301 300 300 299 299 298 298 297 297 297 297
316 317 316 316 317 317 317 317 318 319 319 318 319 319 319 319 319 319 320 321 321 322 322 322 322 321 321 322 321 321 319 318 317 316 315 314 314 312 311 310 308 308 307 306 305 303 303 303 302 302 302 301 301 300 300 300 299 298 298 297 297 297 297
313 313 313 314 314 314 313 314 314 315 316 317 318 319 320 320 320 321 321 321 320 320 319 318 318 319 320 321 321 321 320 318 316 315 315 313 312 311 310 308 307 307 306 305 304 303 303 303 302 302 301 301 301 300 300 300 299 299 298 298 297 297 297
310 311 311 311 311 311 310 310 311 312 314 315 316 317 317 319 320 321 321 320 317 316 315 314 315 317 318 318 318 319 319 318 316 314 313 312 311 309 308 307 306 306 305 304 303 303 302 302 302 301 301 301 300 300 300 299 299 298 298 297 297 296 296
310 310 309 309 309 309 309 309 310 310 312 313 314 315 315 316 318 319 319 318 317 316 316 315 315 315 316 316 317 317 317 316 314 312 311 310 309 307 306 306 305 304 303 303 302 302 301 301 301 301 301 300 300 300 299 298 298 297 297 297 297 297 296
310 309 308 308 308 308 308 309 309 309 311 312 313 314 314 314 315 316 316 316 316 317 316 316 316 315 315 315 315 315 314 313 311 309 309 307 306 306 305 304 303 302 302 302 302 301 301 301 300 300 300 299 299 298 298 297 297 297 296 296 296 296 295
309 309 308 308 308 308 308 308 308 308 309 310 311 312 314 314 314 314 314 314 315 316 316 316 316 315 314 314 313 312 311 310 308 307 307 306 305 304 303 302 302 302 302 301 301 301 300 300 299 299 298 298 297 297 297 296 296 296 295 295 294 294 293
309 309 308 308 308 308 308 308 307 307 307 309 310 310 312 313 314 314 314 314 315 315 316 316 314 312 312 311 311 310 309 308 306 305 305 304 303 302 302 302 302 302 302 301 301 300 299 299 298 298 297 296 296 295 295 294 294 293 293 293 293 292 292
309 309 308 308 308 308 307 308 308 307 306 307 307 308 309 311 313 314 313 314 314 315 315 314 312 310 309 309 308 308 307 307 305 304 303 302 302 302 302 302 301 301 301 300 299 298 297 297 297 296 296 295 294 294 293 293 292 292 292 292 292 292 292
306 306 306 306 307 306 307 308 309 308 307 306 306 306 307 309 311 313 313 313 314 313 313 312 309 307 307 307 307 306 306 305 304 303 302 301 301 301 300 300 300 299 298 297 297 297 296 296 296 295 295 294 293 293 292 292 292 292 292 292 292 291 291
305 305 305 305 305 306 306 308 309 309 309 308 307 306 307 308 310 311 312 312 312 312 310 309 307 305 304 305 305 304 304 304 303 302 301 299 298 298 298 297 297 297 296 296 296 296 296 295 294 294 294 293 293 293 292 292 292 292 291 291 291 291 291
305 305 305 305 304 305 306 308 310 309 309 308 307 307 308 309 310 310 310 311 311 310 308 307 305 304 303 303 303 303 303 302 301 301 300 298 297 297 297 296 296 296 296 296 295 294 294 294 293 293 293 293 293 292 292 292 291 291 291 291 291 291 291
305 305 305 305 305 305 305 306 308 309 308 308 307 307 308 309 309 309 309 310 310 309 307 305 304 304 303 302 302 301 301 300 299 298 297 296 295 296 296 296 296 296 295 294 294 293 293 293 293 293 293 293 292 291 291 291 291 291 291 290 290 290 290
Wind_Speed
19 19 18 18 17 17 15 14 13 13 12 10 10 10 10 10 11 9 8 7 9 9 9 9 10 10 10 8 7 7 6 5 5 6 8 9 8 9 9 6 3 2 1 1 2 2 2 0 2 2 3 4 5 5 5 5 5 6 6 7 8 10 9
20 20 20 18 18 17 16 14 13 12 12 11 10 9 10 11 12 11 10 11 12 13 12 12 12 12 12 10 10 10 9 8 6 6 8 7 6 7 8 7 5 3 1 3 2 2 2 2 1 3 4 4 4 3 3 5 6 7 8 10 10 12 11
23 22 21 20 19 18 17 15 13 12 12 12 11 11 11 12 12 11 10 10 12 13 14 14 14 14 13 11 11 12 12 12 10 10 9 8 7 7 6 6 6 4 3 4 4 2 1 1 1 2 3 4 4 4 5 5 6 7 8 9 10 11 12
27 25 23 22 21 20 18 17 15 14 13 14 13 13 12 13 11 9 8 9 11 12 12 12 13 13 12 12 12 12 12 12 12 11 11 10 9 10 9 8 7 7 6 6 6 5 3 2 1 1 3 4 3 4 6 6 7 11 12 13 13 11 8
29 27 26 25 23 22 20 18 18 17 15 15 14 14 13 12 10 9 9 10 11 11 11 11 10 11 10 10 11 12 11 11 11 10 10 10 10 11 11 9 9 8 8 7 6 5 4 3 2 1 3 4 3 4 6 6 10 14 15 17 19 19 17
29 27 27 26 24 23 21 21 20 19 17 16 15 16 15 13 11 11 11 11 11 11 10 10 9 8 9 9 10 11 11 10 9 8 9 10 9 9 10 9 8 7 7 6 5 4 4 3 3 3 3 3 3 4 6 6 6 9 12 15 16 17 17
29 27 27 27 25 23 22 22 22 20 18 17 16 17 17 15 14 13 13 11 10 10 9 9 9 9 10 11 11 11 11 10 8 9 10 11 10 9 8 7 7 7 6 5 4 4 4 3 5 6 5 4 3 4 6 7 6 7 10 12 11 14 17
28 27 27 27 25 23 23 23 21 20 19 18 17 18 17 16 16 14 14 13 11 10 10 9 9 9 10 11 11 11 11 9 9 10 11 11 10 10 9 7 6 5 5 4 3 2 3 3 5 7 6 4 3 4 5 6 6 8 12 13 9 13 18
28 27 27 28 25 23 23 23 21 20 19 19 18 17 16 15 14 14 15 14 12 10 9 9 8 8 9 11 12 11 11 10 10 11 11 10 10 10 9 9 8 6 5 6 6 4 3 4 4 5 7 6 4 3 4 5 4 4 11 15 10 13 20
28 28 28 29 27 24 24 22 21 21 20 19 19 18 17 15 14 14 15 15 13 11 10 9 7 6 7 9 10 10 11 10 10 11 10 10 10 8 8 8 8 8 8 9 9 8 7 6 4 4 5 6 4 3 1 3 4 2 6 14 12 14 20
30 31 29 29 28 27 26 24 23 23 22 20 20 19 18 15 13 13 14 14 14 12 11 9 8 6 6 8 8 8 9 9 9 10 10 9 9 7 6 6 6 7 7 7 7 7 7 6 5 5 5 5 4 3 2 1 3 2 5 12 14 16 19
31 33 31 29 30 30 29 27 25 24 23 22 20 19 18 16 13 13 13 13 14 14 12 9 7 6 6 7 7 6 7 6 6 8 8 7 8 8 7 6 5 5 4 4 4 4 4 4 5 5 5 5 5 6 4 2 1 3 8 13 15 16 17
31 35 34 31 31 32 32 31 28 26 25 24 22 21 19 17 15 14 14 13 13 14 12 10 8 7 6 5 5 6 6 6 6 6 6 5 6 7 7 5 4 3 3 2 2 2 3 4 5 5 5 5 5 7 8 4 3 7 11 12 13 15 15
30 36 36 33 33 33 33 33 30 28 27 26 24 22 21 19 17 15 15 14 13 13 12 11 10 10 9 7 7 7 6 6 7 6 5 4 4 6 6 4 3 1 2 2 1 1 2 3 4 5 5 4 4 6 7 7 5 9 12 12 12 14 15
29 36 38 34 33 34 35 35 32 30 29 27 25 23 21 19 18 16 15 14 13 12 12 12 11 11 12 11 10 9 9 9 9 8 7 6 5 5 5 4 3 2 1 2 3 3 2 3 4 5 5 4 4 5 7 8 8 7 12 16 16 15 16
21 32 38 37 35 36 35 35 34 33 31 29 27 24 21 19 18 17 15 14 13 12 12 12 12 12 13 13 13 12 12 12 11 11 10 9 8 7 6 5 5 4 3 3 3 4 2 3 5 5 4 4 5 6 7 9 9 8 10 15 16 17 18
14 16 23 29 33 36 36 35 33 33 33 31 29 26 23 20 19 17 16 15 14 13 12 12 13 13 13 13 14 14 14 14 13 13 13 12 11 10 9 7 6 6 5 5 4 4 3 3 5 5 5 6 7 8 8 9 9 9 10 13 15 17 18
16 12 11 14 18 25 31 33 34 34 34 33 31 28 26 23 21 20 19 18 17 16 15 14 14 14 14 14 15 15 16 16 15 15 15 14 14 14 12 10 8 8 8 7 6 5 5 5 6 7 7 9 9 10 10 10 10 10 11 14 16 17 19
15 18 19 18 17 18 22 24 28 32 33 33 32 29 27 25 23 22 21 19 19 18 17 16 16 16 16 16 16 17 17 17 18 17 17 17 16 16 15 13 10 10 10 9 7 7 7 7 8 8 8 10 11 12 13 13 13 13 13 14 15 18 20
11 13 18 21 22 23 21 16 16 20 25 28 30 30 28 26 25 24 23 22 22 21 20 19 19 19 19 19 19 20 20 20 20 20 19 19 18 17 16 15 13 13 13 11 9 9 9 9 9 8 9 9 11 13 15 15 15 14 14 14 15 17 19
10 8 11 17 19 19 20 18 15 16 18 20 23 25 25 24 24 23 23 23 21 19 19 19 19 21 23 23 23 23 23 23 23 22 22 21 20 18 18 17 15 15 15 13 11 11 11 10 10 9 9 9 11 14 16 14 13 12 12 14 15 16 18
11 10 12 15 16 15 17 20 20 21 21 20 22 22 20 20 20 20 20 20 20 19 18 19 19 19 21 24 26 27 27 26 26 25 25 24 22 20 20 19 18 17 17 15 13 12 12 11 10 9 9 9 11 14 13 11 11 10 12 14 16 17 19
16 18 15 14 16 18 21 21 21 22 23 25 26 23 20 18 18 18 18 17 18 18 19 20 20 19 19 21 24 27 29 29 28 27 27 26 24 22 22 21 20 19 17 15 13 13 12 11 10 9 9 9 11 12 10 9 8 8 10 12 13 15 17
18 18 13 10 11 13 15 16 17 18 19 20 20 19 18 18 17 16 15 14 14 15 16 17 17 18 19 19 20 22 26 29 30 29 29 29 27 25 24 23 21 19 17 15 14 13 12 10 10 9 9 10 11 10 9 8 9 9 9 10 11 12 13
16 14 11 9 9 9 10 10 11 11 11 11 11 12 12 13 12 11 10 10 11 12 12 13 13 14 16 18 19 20 23 26 29 31 31 30 29 28 26 24 21 19 17 14 13 11 10 10 10 10 10 10 10 9 9 9 10 10 10 11 12 13 14
14 13 10 9 8 8 8 7 7 7 7 7 8 9 10 9 8 8 8 8 8 9 9 10 11 11 13 15 17 19 20 23 26 29 30 30 29 29 27 24 20 17 15 13 11 11 11 10 11 11 12 11 10 9 10 11 12 12 12 13 14 16 16
12 11 10 9 8 7 6 5 5 6 7 7 8 9 10 10 10 9 8 8 8 9 10 11 12 11 11 12 14 15 17 20 23 25 26 27 26 24 23 20 17 14 13 12 11 11 11 11 11 11 12 11 10 10 11 12 12 12 12 13 15 16 16
11 11 9 9 8 7 6 5 5 5 5 5 5 6 6 8 9 10 10 8 8 10 10 11 10 9 9 9 10 12 14 17 19 19 20 20 19 17 16 15 12 10 10 10 10 10 10 10 10 11 12 12 11 11 10 11 11 11 12 12 14 14 15
11 10 8 7 7 6 6 5 5 5 5 5 5 5 4 4 5 7 9 9 10 12 11 10 10 9 8 7 7 8 10 12 14 14 14 14 13 13 11 10 9 8 8 8 8 9 9 9 10 11 12 12 10 9 9 9 10 10 10 11 12 13 15
12 10 8 7 6 5 5 4 4 5 5 6 6 6 7 6 6 6 7 9 11 13 13 12 10 9 8 7 5 6 8 11 11 12 12 11 11 11 9 8 8 8 8 8 8 9 10 10 11 11 10 9 8 8 8 9 10 11 12 13 15 17 19
14 13 11 9 8 6 6 6 6 6 6 6 5 5 7 8 9 9 9 8 9 12 13 12 10 8 6 6 5 7 10 12 12 12 12 11 10 10 10 9 9 8 8 8 8 8 8 8 9 8 7 7 7 9 10 12 14 15 17 18 18 19 20
16 14 13 12 10 9 8 8 8 7 7 6 6 6 7 8 10 10 10 9 10 11 12 12 9 7 6 7 8 10 11 13 12 12 12 13 12 11 10 9 9 8 8 7 7 7 6 6 5 5 6 8 10 11 13 14 15 16 17 17 17 17 17
13 13 12 12 10 9 9 10 10 9 8 7 7 7 8 9 10 11 10 10 11 12 12 11 9 9 9 9 10 11 11 12 12 12 12 12 11 10 8 8 7 6 6 6 5 5 4 4 5 7 9 10 11 11 12 12 13 13 15 16 16 17 17
5 6 5 6 7 8 9 11 12 11 9 8 7 8 9 10 10 11 11 12 12 12 12 11 11 11 11 10 10 10 10 10 11 11 10 9 8 7 6 6 5 4 3 3 2 3 5 6 8 9 9 9 9 10 11 12 13 13 15 16 17 18 18
4 4 4 5 6 8 10 13 13 12 11 10 8 8 10 10 10 11 12 12 12 12 11 11 11 11 11 10 9 8 8 9 9 9 9 8 7 6 6 7 6 4 2 1 4 6 7 8 8 8 8 8 8 9 10 11 13 14 16 17 19 20 20
7 5 5 5 6 8 10 13 14 13 12 11 10 8 9 9 10 11 12 12 11 11 12 11 11 10 10 9 8 7 7 8 8 8 8 8 7 8 7 6 4 2 1 4 5 6 5 5 5 5 6 7 8 8 10 11 13 15 17 18 19 20 21
9 8 8 9 10 11 11 12 14 15 14 13 12 10 9 10 11 12 13 13 13 12 12 12 11 10 9 8 8 7 7 8 7 7 7 6 7 7 7 5 2 1 3 4 4 3 3 3 3 4 4 5 7 9 10 12 14 15 17 18 19 20 21
Wind_Direction
156 154 156 154 152 151 148 146 143 140 143 146 139 128 132 147 145 132 121 120 133 139 142 139 129 129 133 135 144 158 170 184 202 207 192 186 192 196 199 201 190 170 143 91 130 143 128 144 309 327 331 304 286 293 293 290 303 299 298 296 283 282 284
161 157 158 158 157 157 151 148 148 144 143 144 142 133 131 140 140 133 127 124 126 129 134 135 132 131 130 129 133 137 139 140 147 161 158 160 174 182 191 196 187 184 134 84 106 148 123 110 277 313 354 354 345 344 323 311 316 310 305 304 300 296 285
163 161 161 160 160 161 155 152 154 153 151 149 144 136 132 135 134 130 130 130 131 130 130 130 130 131 129 126 125 126 128 127 125 125 123 125 135 138 146 158 156 143 99 73 68 82 115 128 200 289 344 9 7 13 15 358 348 348 344 333 322 311 298
165 164 164 164 165 165 160 156 154 151 149 149 148 142 135 136 138 136 131 131 137 138 135 133 133 133 132 130 128 128 131 130 124 119 112 110 115 117 116 121 122 113 100 89 82 85 93 93 92 306 336 3 357 355 4 13 33 46 52 49 43 38 27
168 167 166 167 170 168 162 157 153 149 146 146 149 148 142 145 151 146 132 125 129 134 135 136 137 141 144 143 142 140 138 136 131 126 119 111 111 111 108 107 106 105 102 97 93 86 81 83 92 53 353 1 341 340 2 34 65 65 62 55 52 54 55
172 172 171 171 173 171 166 162 158 155 152 151 152 153 151 153 156 148 136 126 120 121 124 127 128 135 141 141 145 146 144 143 142 141 133 122 119 114 109 107 105 104 99 90 86 85 83 87 82 46 359 352 334 336 355 17 56 66 55 45 42 45 48
176 178 177 176 177 178 175 170 166 162 159 157 156 155 156 156 154 148 141 133 124 119 119 123 124 125 127 126 129 133 135 139 140 140 135 127 121 115 111 113 106 99 96 88 86 87 80 75 66 42 7 350 342 352 359 2 22 46 40 32 29 30 33
183 184 183 181 182 186 183 177 172 166 161 160 159 157 156 158 158 154 149 143 137 132 128 128 129 128 127 122 120 119 119 124 130 129 129 127 121 114 107 105 103 101 89 68 58 62 69 77 70 54 40 35 12 354 355 359 22 37 26 19 13 14 16
187 188 187 184 187 190 185 181 177 170 163 161 161 160 158 159 160 159 157 151 147 145 141 137 131 125 125 122 118 114 107 107 114 117 122 123 116 108 100 88 81 85 77 63 58 60 78 91 81 56 42 52 61 13 345 350 6 29 16 12 6 2 7
193 192 191 188 191 194 189 184 180 173 168 166 166 164 161 160 159 161 163 159 154 151 148 149 143 131 131 131 128 122 115 111 111 113 119 123 116 106 100 87 75 80 83 74 72 75 80 83 84 61 30 38 57 56 38 345 325 271 3 7 2 354 0
199 196 195 195 195 196 192 189 184 177 172 169 170 168 164 163 162 161 163 163 163 159 154 155 157 155 152 148 146 139 131 128 124 122 122 126 128 124 116 105 88 85 86 81 80 81 76 67 58 48 30 24 30 38 84 334 311 291 347 354 355 353 355
205 200 198 198 198 199 196 193 189 183 177 172 171 169 167 168 167 166 164 163 168 170 169 168 173 175 167 161 164 159 150 152 149 139 133 130 135 143 146 134 108 85 81 88 95 87 64 39 19 13 12 11 11 4 358 344 286 305 329 338 347 352 352
210 205 200 198 199 202 201 197 195 190 183 179 175 170 169 168 168 170 171 170 173 178 180 179 183 190 185 184 188 181 176 185 188 169 157 154 147 152 160 152 123 84 59 77 116 96 49 23 9 3 357 354 1 353 344 341 287 293 319 335 342 346 348
211 207 202 201 201 204 205 202 199 195 190 187 183 177 174 171 167 168 172 176 179 185 190 187 189 196 198 204 211 206 204 207 208 200 188 193 184 168 169 167 154 114 34 34 40 41 33 27 23 22 20 17 18 5 356 357 331 306 321 339 345 345 346
215 209 204 203 203 205 208 206 203 199 194 193 191 187 181 177 172 169 171 176 181 186 193 196 197 201 205 211 216 219 223 224 221 218 215 219 217 202 203 211 210 227 271 338 360 350 334 360 7 13 24 32 25 16 9 3 353 329 327 334 338 342 344
222 215 208 206 206 207 209 208 205 202 198 195 195 193 189 185 182 179 176 178 182 187 194 201 205 209 211 216 220 223 228 232 232 230 228 231 232 228 230 234 236 245 255 275 326 334 320 340 353 358 6 8 3 0 357 353 351 346 336 332 333 338 342
224 229 216 208 206 207 208 208 206 204 201 198 197 196 194 192 190 190 189 187 188 191 195 202 209 215 219 222 226 229 231 233 235 236 237 239 240 241 240 239 239 245 254 261 285 303 293 302 322 329 334 337 338 340 341 341 342 344 340 335 334 336 339
205 220 218 207 206 205 204 205 205 205 203 200 199 199 198 197 197 198 200 200 198 199 202 206 211 217 222 227 231 234 234 234 235 237 240 241 241 244 246 246 245 243 250 256 263 276 273 273 290 301 308 316 321 326 331 333 336 338 339 339 336 334 336
189 197 195 193 194 194 196 201 204 203 203 200 199 200 200 200 202 205 208 210 209 209 211 216 220 223 226 229 233 235 235 236 236 236 238 239 240 242 245 249 249 243 246 250 249 257 264 267 277 287 297 308 316 322 325 326 329 331 334 340 341 338 340
170 175 176 177 181 184 185 192 199 196 195 197 198 201 203 204 207 211 214 216 218 218 219 224 231 235 236 236 237 237 237 237 237 237 237 237 237 238 239 243 245 240 241 244 242 246 256 262 269 280 293 304 312 320 323 322 324 328 335 342 347 346 344
173 175 178 181 183 183 182 186 193 193 190 193 196 197 200 203 207 211 216 219 220 222 224 227 233 238 241 241 240 240 240 239 237 236 236 236 237 235 234 237 239 236 235 236 239 246 253 257 264 275 286 295 308 319 322 323 326 331 339 345 349 348 344
195 215 216 204 201 206 203 197 198 203 207 211 211 204 199 202 206 210 215 217 218 222 227 231 236 241 244 243 242 242 242 241 239 238 236 234 234 233 231 233 234 232 230 231 236 245 249 253 261 269 276 291 308 317 319 321 326 333 339 344 345 343 339
219 229 230 217 211 216 216 208 206 211 215 220 222 220 218 220 224 229 232 232 231 235 242 246 248 250 250 249 249 247 245 243 241 240 238 233 231 230 230 230 228 225 225 229 236 243 247 252 260 265 273 292 307 311 311 313 318 324 332 335 334 332 329
211 215 213 203 199 203 206 206 210 215 218 220 224 228 231 234 238 243 248 252 254 257 260 261 261 259 258 258 260 257 251 246 243 241 237 232 229 228 225 223 221 220 223 230 236 241 247 254 261 266 277 293 301 301 296 293 296 302 308 310 310 312 311
186 186 180 174 176 180 187 194 202 211 217 221 228 235 240 244 246 250 258 265 270 270 270 272 272 269 265 264 264 261 255 250 245 240 236 233 230 227 222 217 215 217 223 232 238 244 250 256 264 273 281 289 291 290 287 282 282 286 289 290 293 297 300
170 174 172 172 176 175 180 191 203 215 222 226 237 243 245 249 253 258 267 274 276 275 276 279 281 280 276 271 267 262 256 252 247 241 236 232 229 224 218 211 208 210 219 230 238 247 253 256 263 271 276 281 284 284 282 280 280 281 284 287 288 295 303
169 170 167 170 177 180 186 200 211 224 234 239 247 250 249 251 254 254 257 264 271 277 281 286 287 286 284 280 275 268 257 249 245 241 235 228 223 219 213 208 206 211 220 231 240 244 248 252 258 266 271 275 279 280 279 277 277 279 283 288 291 296 303
169 168 169 174 181 188 198 206 211 223 236 240 246 253 254 257 258 251 242 244 263 279 287 291 293 292 289 285 279 270 256 244 240 236 229 223 218 212 207 205 211 223 231 235 238 239 243 248 255 262 267 270 270 271 268 266 268 270 276 283 288 292 296
174 173 179 189 196 205 212 216 222 229 235 238 248 261 267 270 264 249 238 243 263 277 285 292 298 303 307 305 288 265 246 232 224 216 208 205 198 192 197 208 217 224 226 226 231 240 248 255 257 257 258 260 257 251 249 255 262 269 275 281 286 291 295
184 186 188 192 196 207 220 231 243 247 248 249 254 262 269 273 273 265 255 254 263 270 274 281 289 298 309 309 284 240 216 204 195 186 180 178 181 185 196 211 212 211 222 231 240 248 252 253 250 245 245 247 247 248 255 267 275 280 284 286 289 292 293
195 191 188 187 192 202 211 224 243 252 253 258 265 270 269 266 263 265 266 262 261 262 263 266 271 277 284 276 242 209 191 183 177 176 175 174 180 189 197 204 212 223 237 246 249 251 250 246 243 243 250 262 276 285 290 294 295 297 297 297 298 299 299
201 196 190 189 193 202 212 227 241 247 248 254 267 278 280 270 260 258 260 258 253 251 251 250 247 241 233 222 209 196 187 180 174 173 178 182 187 195 202 210 223 237 247 251 254 255 255 255 260 275 293 302 310 314 312 312 313 313 312 312 314 316 316
200 197 192 193 200 211 226 237 240 242 245 251 262 278 292 287 267 253 249 246 241 238 235 229 216 207 205 202 198 195 194 190 182 177 179 187 194 202 209 219 228 239 245 245 247 255 271 292 302 311 318 321 326 328 326 326 328 328 327 327 328 328 327
207 207 211 226 240 244 242 239 239 243 246 250 262 281 296 295 271 248 237 231 227 224 220 212 200 194 197 197 196 197 195 190 188 185 181 182 191 198 198 199 197 194 199 212 253 304 318 321 320 322 327 331 335 336 332 331 333 333 331 330 329 328 327
261 261 280 294 292 283 266 249 245 248 248 250 263 282 290 286 263 239 224 217 215 211 205 201 194 191 193 195 196 199 197 190 190 192 182 168 165 168 162 156 156 152 148 334 334 330 324 322 323 327 333 338 338 335 332 331 330 329 327 326 327 326 326
265 261 277 290 298 301 285 261 251 251 250 255 269 278 274 262 243 225 211 205 206 203 196 191 190 191 193 197 198 199 198 189 187 193 190 169 154 153 154 154 159 164 326 334 337 334 325 321 326 332 338 342 338 333 330 329 328 326 326 327 327 325 324
249 248 262 278 284 288 283 267 257 255 255 259 265 264 251 235 222 212 205 200 196 193 190 188 190 194 198 202 203 198 191 184 183 190 187 163 145 148 156 165 182 288 327 333 343 348 338 331 333 331 333 337 337 334 333 332 332 331 329 327 324 321 320